Tracking 18793 objects as of 24-September-2017
HD Live streaming from Space Station
objects crossing your sky now

DELTA 1 R/B

Track DELTA 1 R/B now!
10-day predictions


NORAD ID: 4251
Int'l Code: 1969-101B
Perigee: 343.2 km
Apogee: 17,736.5 km
Inclination: 27.7 °
Period: 317.3 minutes
Semi major axis: 15410 km
RCS: 1.8664 m2 (large)
Launch date: November 22, 1969
Source: United States (US)
Launch site: AIR FORCE EASTERN TEST RANGE (AFETR)

Note: This is a ROCKET BODY
aabbcc
Your satellite tracking list
Your tracking list is empty





NASA's NSSDC Master Catalog

Two Line Element Set (TLE):
1  4251U 69101B   17266.61217247 +.00000277 +00000-0 +19191-3 0  9991
2  4251 027.7221 305.4474 5643174 106.4937 319.9798 04.53797601533001
Source of the keplerian elements: AFSPC